TVF21TN LFPO-LJLJ

Flight info

Callsign TVF21TN
Flight time 1h 25m
Altitude 33000
Route BUBLI DCT LUVAL DCT BEGAR DCT TRA DCT GAMSA DCT GEDSO DCT LUMUS LUMUS4L
Aircraft B738/M-SDFGHIJ1RWXY/LB1

Departure

Time 2026-05-07 16:36
Airport Paris-Orly Airport (LFPO)

Arrival

Time 2026-05-07 18:01
Airport Ljubljana Jože Pučnik Airport (LJLJ)
Time Latitude Longitude Altitude Speed Heading
2026-05-07 15:59 48.72697 2.36661 298 ft 0 kts 22°
2026-05-07 16:26 48.72691 2.36657 302 ft 4 kts 23°
2026-05-07 16:26 48.72666 2.36641 303 ft 4 kts 21°
2026-05-07 16:26 48.72641 2.36629 301 ft 4 kts
2026-05-07 16:27 48.72616 2.36637 301 ft 4 kts 324°
2026-05-07 16:27 48.72600 2.36665 301 ft 4 kts 285°
2026-05-07 16:27 48.72599 2.36690 303 ft 0 kts 247°
2026-05-07 16:29 48.72598 2.36688 303 ft 1 kts 247°
2026-05-07 16:29 48.72593 2.36669 302 ft 3 kts 247°
2026-05-07 16:30 48.72580 2.36623 298 ft 6 kts 247°
2026-05-07 16:30 48.72567 2.36560 299 ft 7 kts 254°
2026-05-07 16:30 48.72550 2.36471 297 ft 10 kts 254°
2026-05-07 16:30 48.72532 2.36369 300 ft 10 kts 255°
2026-05-07 16:31 48.72513 2.36270 300 ft 10 kts 248°
2026-05-07 16:31 48.72459 2.36232 297 ft 9 kts 172°
2026-05-07 16:31 48.72396 2.36257 299 ft 9 kts 163°
2026-05-07 16:31 48.72336 2.36285 299 ft 9 kts 162°
2026-05-07 16:32 48.72283 2.36331 301 ft 9 kts 139°
2026-05-07 16:32 48.72246 2.36400 298 ft 8 kts 123°
2026-05-07 16:32 48.72221 2.36468 301 ft 6 kts 119°
2026-05-07 16:32 48.72203 2.36510 298 ft 3 kts 134°
2026-05-07 16:33 48.72195 2.36519 299 ft 0 kts 145°
2026-05-07 16:34 48.72181 2.36529 299 ft 5 kts 158°
2026-05-07 16:34 48.72132 2.36553 300 ft 9 kts 162°
2026-05-07 16:34 48.72082 2.36590 300 ft 6 kts 117°
2026-05-07 16:34 48.72084 2.36626 301 ft 0 kts 75°
2026-05-07 16:35 48.72088 2.36652 303 ft 11 kts 75°
2026-05-07 16:35 48.72175 2.37125 297 ft 83 kts 74°
2026-05-07 16:35 48.72387 2.38275 302 ft 144 kts 74°
2026-05-07 16:36 48.72673 2.39847 739 ft 158 kts 74°
2026-05-07 16:36 48.72977 2.41487 1467 ft 164 kts 73°
2026-05-07 16:36 48.73284 2.43146 2233 ft 166 kts 73°
2026-05-07 16:36 48.73591 2.44821 3043 ft 164 kts 73°
2026-05-07 16:37 48.73913 2.46514 3711 ft 174 kts 73°
2026-05-07 16:37 48.74099 2.48488 4016 ft 205 kts 86°
2026-05-07 16:37 48.74175 2.50772 4230 ft 230 kts 87°
2026-05-07 16:37 48.74256 2.53313 4544 ft 251 kts 86°
2026-05-07 16:38 48.74353 2.55957 5278 ft 257 kts 84°
2026-05-07 16:38 48.74558 2.58656 6148 ft 259 kts 83°
2026-05-07 16:38 48.74788 2.61373 6931 ft 262 kts 83°
2026-05-07 16:38 48.75019 2.64151 7599 ft 269 kts 83°
2026-05-07 16:39 48.75250 2.66981 8370 ft 272 kts 84°
2026-05-07 16:39 48.75481 2.69852 9124 ft 277 kts 84°
2026-05-07 16:39 48.75707 2.72769 9897 ft 281 kts 84°
2026-05-07 16:39 48.75935 2.75732 10596 ft 285 kts 84°
2026-05-07 16:40 48.76164 2.78700 11296 ft 289 kts 84°
2026-05-07 16:40 48.76396 2.81750 12035 ft 293 kts 84°
2026-05-07 16:40 48.76631 2.84843 12781 ft 298 kts 84°
2026-05-07 16:40 48.76870 2.87993 13543 ft 302 kts 84°
2026-05-07 16:41 48.77112 2.91179 14262 ft 307 kts 84°
2026-05-07 16:41 48.77355 2.94408 14993 ft 310 kts 84°
2026-05-07 16:41 48.77598 2.97627 15724 ft 313 kts 83°
2026-05-07 16:41 48.77927 3.00913 16403 ft 320 kts 80°
2026-05-07 16:42 48.78341 3.04348 16600 ft 343 kts 79°
2026-05-07 16:42 48.78799 3.08016 16783 ft 365 kts 79°
2026-05-07 16:42 48.79277 3.11877 17153 ft 379 kts 79°
2026-05-07 16:42 48.79759 3.15844 17802 ft 384 kts 80°
2026-05-07 16:43 48.80239 3.19846 18513 ft 387 kts 80°
2026-05-07 16:43 48.80717 3.23881 19154 ft 390 kts 80°
2026-05-07 16:43 48.81196 3.27945 19784 ft 393 kts 80°
2026-05-07 16:43 48.81677 3.32049 20401 ft 397 kts 80°
2026-05-07 16:44 48.82150 3.36136 20997 ft 400 kts 81°
2026-05-07 16:44 48.82261 3.40359 21574 ft 403 kts 95°
2026-05-07 16:44 48.81998 3.44605 22191 ft 406 kts 97°
2026-05-07 16:44 48.81678 3.48878 22766 ft 409 kts 97°
2026-05-07 16:45 48.81351 3.53187 23343 ft 413 kts 97°
2026-05-07 16:45 48.81035 3.57530 23865 ft 416 kts 97°
2026-05-07 16:45 48.80733 3.61907 24333 ft 419 kts 96°
2026-05-07 16:45 48.80439 3.66317 24796 ft 422 kts 96°
2026-05-07 16:46 48.80153 3.70697 25251 ft 424 kts 96°
2026-05-07 16:46 48.79862 3.75166 25699 ft 427 kts 96°
2026-05-07 16:46 48.79569 3.79668 26133 ft 430 kts 96°
2026-05-07 16:46 48.79272 3.84205 26577 ft 433 kts 96°
2026-05-07 16:47 48.78971 3.88761 27005 ft 436 kts 96°
2026-05-07 16:47 48.78666 3.93348 27420 ft 439 kts 96°
2026-05-07 16:47 48.78357 3.97963 27826 ft 441 kts 96°
2026-05-07 16:47 48.78045 4.02607 28231 ft 444 kts 96°
2026-05-07 16:48 48.77733 4.07216 28610 ft 447 kts 96°
2026-05-07 16:48 48.77399 4.11911 29018 ft 448 kts 99°
2026-05-07 16:48 48.76521 4.16417 29492 ft 446 kts 118°
2026-05-07 16:48 48.74873 4.20348 30125 ft 440 kts 127°
2026-05-07 16:49 48.73087 4.24094 30599 ft 438 kts 128°
2026-05-07 16:49 48.71285 4.27821 30955 ft 439 kts 128°
2026-05-07 16:49 48.69481 4.31562 31322 ft 440 kts 128°
2026-05-07 16:49 48.67685 4.35310 31753 ft 439 kts 127°
2026-05-07 16:50 48.65924 4.39008 32145 ft 440 kts 127°
2026-05-07 16:50 48.64134 4.42780 32393 ft 442 kts 127°
2026-05-07 16:50 48.62348 4.46563 32651 ft 441 kts 127°
2026-05-07 16:50 48.60570 4.50326 32905 ft 439 kts 127°
2026-05-07 16:51 48.58797 4.54073 33048 ft 440 kts 127°
2026-05-07 16:51 48.55222 4.61607 33028 ft 440 kts 128°
2026-05-07 16:52 48.51657 4.69097 33046 ft 439 kts 128°
2026-05-07 16:52 48.48114 4.76519 33032 ft 439 kts 128°
2026-05-07 16:53 48.44539 4.83987 33051 ft 440 kts 128°
2026-05-07 16:53 48.40952 4.91461 33050 ft 441 kts 128°
2026-05-07 16:54 48.37352 4.98943 33039 ft 442 kts 128°
2026-05-07 16:54 48.33766 5.06378 33051 ft 442 kts 128°
2026-05-07 16:55 48.30272 5.13995 33037 ft 445 kts 120°
2026-05-07 16:55 48.28177 5.22721 33049 ft 447 kts 103°
2026-05-07 16:56 48.26867 5.31846 33041 ft 448 kts 103°
2026-05-07 16:56 48.24910 5.45480 33042 ft 448 kts 103°
2026-05-07 16:57 48.23548 5.54610 33039 ft 448 kts 103°
2026-05-07 16:57 48.22168 5.63725 33050 ft 448 kts 103°
2026-05-07 16:58 48.20780 5.72829 33045 ft 448 kts 103°
2026-05-07 16:58 48.19393 5.81876 33045 ft 448 kts 104°
2026-05-07 16:59 48.17992 5.90972 33051 ft 448 kts 104°
2026-05-07 16:59 48.16582 6.00077 33053 ft 448 kts 104°
2026-05-07 17:00 48.15175 6.09115 33047 ft 449 kts 104°
2026-05-07 17:00 48.13750 6.18208 33053 ft 449 kts 104°
2026-05-07 17:01 48.12317 6.27306 33047 ft 449 kts 104°
2026-05-07 17:01 48.10878 6.36394 33048 ft 449 kts 104°
2026-05-07 17:02 48.09434 6.45482 33032 ft 449 kts 104°
2026-05-07 17:02 48.07992 6.54493 33034 ft 448 kts 104°
2026-05-07 17:03 48.06533 6.63539 33044 ft 447 kts 104°
2026-05-07 17:03 48.05069 6.72573 33043 ft 448 kts 104°
2026-05-07 17:04 48.03595 6.81631 33038 ft 449 kts 104°
2026-05-07 17:04 48.02123 6.90629 33030 ft 449 kts 104°
2026-05-07 17:05 48.00637 6.99668 33021 ft 449 kts 104°
2026-05-07 17:05 47.99139 7.08718 33044 ft 449 kts 104°
2026-05-07 17:06 47.97635 7.17761 33039 ft 449 kts 104°
2026-05-07 17:06 47.96123 7.26808 33049 ft 450 kts 104°
2026-05-07 17:07 47.94610 7.35814 33044 ft 450 kts 104°
2026-05-07 17:07 47.93080 7.44878 33041 ft 451 kts 104°
2026-05-07 17:08 47.91541 7.53953 33028 ft 452 kts 104°
2026-05-07 17:08 47.89783 7.62932 33029 ft 451 kts 110°
2026-05-07 17:09 47.87542 7.71672 33027 ft 452 kts 112°
2026-05-07 17:09 47.85274 7.80331 33028 ft 452 kts 112°
2026-05-07 17:10 47.83028 7.89081 33020 ft 452 kts 112°
2026-05-07 17:10 47.80804 7.97820 33025 ft 451 kts 111°
2026-05-07 17:11 47.78580 8.06541 33024 ft 451 kts 112°
2026-05-07 17:11 47.76367 8.15179 33026 ft 450 kts 112°
2026-05-07 17:12 47.74135 8.23856 33026 ft 449 kts 112°
2026-05-07 17:12 47.71900 8.32510 33021 ft 449 kts 112°
2026-05-07 17:13 47.69661 8.41154 33018 ft 449 kts 112°
2026-05-07 17:13 47.67516 8.49809 33022 ft 450 kts 109°
2026-05-07 17:14 47.65551 8.58638 33026 ft 452 kts 109°
2026-05-07 17:14 47.63575 8.67523 33023 ft 455 kts 109°
2026-05-07 17:15 47.61570 8.76366 33024 ft 457 kts 109°
2026-05-07 17:15 47.59522 8.85291 33014 ft 458 kts 110°
2026-05-07 17:16 47.57460 8.94232 33023 ft 459 kts 110°
2026-05-07 17:16 47.55392 9.03161 33012 ft 459 kts 110°
2026-05-07 17:17 47.53330 9.12034 33020 ft 458 kts 110°
2026-05-07 17:17 47.51251 9.20944 33015 ft 458 kts 110°
2026-05-07 17:18 47.49167 9.29839 33022 ft 457 kts 110°
2026-05-07 17:18 47.47086 9.38684 33022 ft 456 kts 110°
2026-05-07 17:19 47.45016 9.47448 33026 ft 456 kts 110°
2026-05-07 17:19 47.42922 9.56284 33016 ft 455 kts 110°
2026-05-07 17:20 47.40837 9.65104 33029 ft 455 kts 109°
2026-05-07 17:20 47.39400 9.74196 33028 ft 455 kts 102°
2026-05-07 17:21 47.38215 9.83370 33031 ft 455 kts 101°
2026-05-07 17:21 47.37001 9.92516 33008 ft 456 kts 102°
2026-05-07 17:22 47.35745 10.01629 33017 ft 457 kts 102°
2026-05-07 17:22 47.34558 10.10085 33029 ft 459 kts 103°
2026-05-07 17:23 47.33282 10.19080 33044 ft 460 kts 103°
2026-05-07 17:23 47.31961 10.28348 33038 ft 462 kts 103°
2026-05-07 17:24 47.30641 10.37558 33038 ft 463 kts 103°
2026-05-07 17:24 47.29304 10.46833 33039 ft 462 kts 103°
2026-05-07 17:25 47.27962 10.56086 33041 ft 461 kts 103°
2026-05-07 17:25 47.26617 10.65302 33027 ft 460 kts 103°
2026-05-07 17:26 47.25277 10.74434 33016 ft 459 kts 103°
2026-05-07 17:26 47.23924 10.83597 32999 ft 458 kts 104°
2026-05-07 17:27 47.22564 10.92749 33016 ft 458 kts 104°
2026-05-07 17:27 47.21198 11.01889 33017 ft 458 kts 104°
2026-05-07 17:28 47.19833 11.10975 32975 ft 458 kts 104°
2026-05-07 17:28 47.18454 11.20081 33020 ft 456 kts 104°
2026-05-07 17:29 47.17068 11.29202 33002 ft 458 kts 104°
2026-05-07 17:29 47.15670 11.38356 32999 ft 460 kts 104°
2026-05-07 17:30 47.14267 11.47479 33003 ft 462 kts 104°
2026-05-07 17:30 47.12838 11.56717 33002 ft 463 kts 104°
2026-05-07 17:31 47.11403 11.65944 33016 ft 465 kts 105°
2026-05-07 17:31 47.09958 11.75185 32998 ft 464 kts 105°
2026-05-07 17:32 47.08523 11.84319 32999 ft 462 kts 105°
2026-05-07 17:32 47.07196 11.91945 33005 ft 460 kts 108°
2026-05-07 17:33 47.05041 12.02358 33013 ft 458 kts 109°
2026-05-07 17:33 47.03159 12.11272 33017 ft 457 kts 109°
2026-05-07 17:34 47.01300 12.20197 33023 ft 458 kts 109°
2026-05-07 17:34 46.99460 12.29076 33011 ft 457 kts 109°
2026-05-07 17:35 46.98542 12.33512 32636 ft 454 kts 109°
2026-05-07 17:35 46.97630 12.37909 32295 ft 447 kts 109°
2026-05-07 17:35 46.96727 12.42247 31938 ft 442 kts 109°
2026-05-07 17:35 46.95833 12.46537 31529 ft 439 kts 109°
2026-05-07 17:36 46.94940 12.50802 31140 ft 436 kts 109°
2026-05-07 17:36 46.94066 12.54968 30734 ft 432 kts 109°
2026-05-07 17:36 46.93187 12.59151 30376 ft 427 kts 109°
2026-05-07 17:36 46.92315 12.63289 29989 ft 424 kts 109°
2026-05-07 17:37 46.91447 12.67400 29528 ft 422 kts 109°
2026-05-07 17:37 46.90585 12.71480 29130 ft 417 kts 109°
2026-05-07 17:37 46.89731 12.75508 28738 ft 413 kts 108°
2026-05-07 17:37 46.88885 12.79496 28329 ft 408 kts 109°
2026-05-07 17:38 46.88047 12.83435 27975 ft 403 kts 109°
2026-05-07 17:38 46.87218 12.87325 27541 ft 400 kts 109°
2026-05-07 17:38 46.86405 12.91131 27215 ft 395 kts 108°
2026-05-07 17:38 46.85588 12.94950 26782 ft 393 kts 108°
2026-05-07 17:39 46.84774 12.98747 26398 ft 390 kts 108°
2026-05-07 17:39 46.83965 13.02517 26050 ft 388 kts 108°
2026-05-07 17:39 46.83160 13.06262 25671 ft 386 kts 108°
2026-05-07 17:39 46.82356 13.09989 25298 ft 383 kts 108°
2026-05-07 17:40 46.81558 13.13685 24933 ft 380 kts 108°
2026-05-07 17:40 46.80766 13.17355 24556 ft 377 kts 108°
2026-05-07 17:40 46.79991 13.20944 24221 ft 375 kts 108°
2026-05-07 17:40 46.79205 13.24563 23852 ft 373 kts 108°
2026-05-07 17:41 46.78423 13.28157 23474 ft 371 kts 108°
2026-05-07 17:41 46.77644 13.31731 23045 ft 368 kts 108°
2026-05-07 17:41 46.76870 13.35275 22656 ft 365 kts 108°
2026-05-07 17:41 46.76102 13.38793 22293 ft 363 kts 108°
2026-05-07 17:42 46.75338 13.42284 21913 ft 360 kts 108°
2026-05-07 17:42 46.74579 13.45748 21551 ft 357 kts 108°
2026-05-07 17:42 46.73834 13.49138 21186 ft 355 kts 108°
2026-05-07 17:42 46.73083 13.52552 20821 ft 353 kts 108°
2026-05-07 17:43 46.72335 13.55945 20476 ft 350 kts 108°
2026-05-07 17:43 46.71591 13.59318 20117 ft 349 kts 108°
2026-05-07 17:43 46.70850 13.62670 19769 ft 347 kts 108°
2026-05-07 17:43 46.70111 13.66011 19418 ft 345 kts 108°
2026-05-07 17:44 46.69385 13.69285 19071 ft 344 kts 108°
2026-05-07 17:44 46.68650 13.72595 18729 ft 343 kts 108°
2026-05-07 17:44 46.67916 13.75893 18374 ft 343 kts 107°
2026-05-07 17:44 46.67182 13.79196 17987 ft 343 kts 108°
2026-05-07 17:45 46.66448 13.82491 17606 ft 342 kts 108°
2026-05-07 17:45 46.65716 13.85773 17236 ft 339 kts 108°
2026-05-07 17:45 46.64988 13.89020 16906 ft 336 kts 108°
2026-05-07 17:45 46.64265 13.92242 16561 ft 334 kts 108°
2026-05-07 17:46 46.63555 13.95399 16218 ft 332 kts 108°
2026-05-07 17:46 46.62841 13.98582 15886 ft 330 kts 108°
2026-05-07 17:46 46.62131 14.01740 15547 ft 328 kts 108°
2026-05-07 17:46 46.61424 14.04881 15214 ft 325 kts 108°
2026-05-07 17:47 46.60720 14.07998 14894 ft 324 kts 109°
2026-05-07 17:47 46.60017 14.11102 14567 ft 323 kts 109°
2026-05-07 17:47 46.59219 14.14148 14224 ft 321 kts 121°
2026-05-07 17:47 46.57763 14.16538 13918 ft 315 kts 146°
2026-05-07 17:48 46.55902 14.18148 13590 ft 310 kts 154°
2026-05-07 17:48 46.54021 14.19588 13244 ft 309 kts 154°
2026-05-07 17:48 46.52121 14.21025 12904 ft 307 kts 154°
2026-05-07 17:48 46.50238 14.22461 12575 ft 305 kts 154°
2026-05-07 17:49 46.48371 14.23900 12238 ft 303 kts 154°
2026-05-07 17:49 46.46520 14.25339 11921 ft 300 kts 154°
2026-05-07 17:49 46.44687 14.26764 11612 ft 298 kts 154°
2026-05-07 17:49 46.42858 14.28185 11291 ft 297 kts 154°
2026-05-07 17:50 46.41653 14.29120 11073 ft 297 kts 154°
2026-05-07 17:50 46.39838 14.30525 10768 ft 295 kts 154°
2026-05-07 17:50 46.38031 14.31923 10453 ft 294 kts 154°
2026-05-07 17:50 46.35653 14.33759 10183 ft 288 kts 154°
2026-05-07 17:51 46.33900 14.35113 10040 ft 283 kts 154°
2026-05-07 17:51 46.32174 14.36445 9795 ft 281 kts 154°
2026-05-07 17:51 46.30450 14.37774 9493 ft 281 kts 154°
2026-05-07 17:51 46.28728 14.39101 9198 ft 280 kts 154°
2026-05-07 17:52 46.27590 14.39977 9003 ft 279 kts 154°
2026-05-07 17:52 46.25877 14.41295 8711 ft 278 kts 154°
2026-05-07 17:52 46.23624 14.43059 8327 ft 278 kts 150°
2026-05-07 17:52 46.22562 14.44175 8130 ft 279 kts 144°
2026-05-07 17:53 46.21107 14.45954 7849 ft 277 kts 142°
2026-05-07 17:53 46.19643 14.47753 7572 ft 275 kts 143°
2026-05-07 17:53 46.18186 14.49512 7295 ft 274 kts 143°
2026-05-07 17:53 46.16724 14.51260 7029 ft 272 kts 144°
2026-05-07 17:54 46.15251 14.52960 6759 ft 270 kts 145°
2026-05-07 17:54 46.13791 14.54638 6512 ft 267 kts 145°
2026-05-07 17:54 46.12349 14.56281 6357 ft 261 kts 144°
2026-05-07 17:54 46.10948 14.57899 6193 ft 255 kts 145°
2026-05-07 17:55 46.09604 14.59450 6120 ft 246 kts 145°
2026-05-07 17:55 46.08288 14.60965 5991 ft 240 kts 145°
2026-05-07 17:55 46.06992 14.62455 5792 ft 237 kts 144°
2026-05-07 17:55 46.06024 14.64310 5655 ft 236 kts 110°
2026-05-07 17:56 46.06018 14.66642 5427 ft 236 kts 71°
2026-05-07 17:56 46.06927 14.68569 5256 ft 234 kts 36°
2026-05-07 17:56 46.08374 14.69518 5036 ft 230 kts
2026-05-07 17:56 46.09843 14.69032 4883 ft 212 kts 321°
2026-05-07 17:57 46.10901 14.67575 4584 ft 211 kts 307°
2026-05-07 17:57 46.11805 14.65982 4391 ft 205 kts 303°
2026-05-07 17:57 46.12660 14.64353 4100 ft 202 kts 302°
2026-05-07 17:57 46.13481 14.62741 3879 ft 196 kts 302°
2026-05-07 17:58 46.14286 14.61205 3697 ft 188 kts 304°
2026-05-07 17:58 46.15077 14.59745 3468 ft 182 kts 303°
2026-05-07 17:58 46.15831 14.58283 3151 ft 181 kts 304°
2026-05-07 17:58 46.16586 14.56865 2830 ft 175 kts 305°
2026-05-07 17:59 46.17299 14.55540 2509 ft 161 kts 303°
2026-05-07 17:59 46.17940 14.54281 2367 ft 145 kts 302°
2026-05-07 17:59 46.18539 14.53168 2109 ft 142 kts 304°
2026-05-07 17:59 46.19147 14.51990 1972 ft 149 kts 302°
2026-05-07 18:00 46.19755 14.50770 1815 ft 150 kts 303°
2026-05-07 18:00 46.20386 14.49578 1645 ft 149 kts 305°
2026-05-07 18:00 46.21026 14.48352 1415 ft 156 kts 306°
2026-05-07 18:00 46.21677 14.47106 1226 ft 153 kts 304°
2026-05-07 18:01 46.22236 14.46020 1237 ft 107 kts 307°
2026-05-07 18:01 46.22550 14.45407 1253 ft 44 kts 306°
2026-05-07 18:01 46.22588 14.45334 1259 ft 1 kts 313°
2026-05-07 18:01 46.22626 14.45349 1252 ft 10 kts 23°
2026-05-07 18:02 46.22754 14.45330 1262 ft 9 kts 347°
2026-05-07 18:02 46.22816 14.45315 1261 ft 9 kts 353°
2026-05-07 18:02 46.22872 14.45344 1260 ft 8 kts 36°
2026-05-07 18:03 46.22915 14.45390 1257 ft 7 kts 36°
2026-05-07 18:03 46.22933 14.45441 1263 ft 5 kts 96°
2026-05-07 18:03 46.22947 14.45479 1261 ft 4 kts 38°
2026-05-07 18:03 46.22967 14.45501 1259 ft 3 kts 36°
2026-05-07 18:04 46.22977 14.45511 1262 ft 0 kts 36°